Location: Alberta Star Party
(51.6612°N, 112.9089°W)
Time: 23:07:39
(UTC-07:00)

Amateur Radio Satellites - All Passes

Search period start: 19 November 2017 22:37
Search period end: 20 November 2017 22:37
Location: Alberta Star Party, 51.6612°N, 112.9089°W

Satellite Date Start Highest point End Downlink Frequencies (MHz)
Time Altitude Azimuth
AIST 2D 19 Nov 22:37:57 22:38:39 10° 87° (E) 22:39:21 435.315
VELOX 1 19 Nov 22:42:24 22:45:01 16° 55° (NE) 22:47:38 145.980
PRISM 19 Nov 23:01:29 23:05:37 55° 101° (E) 23:09:42 437.425
SO-50 19 Nov 23:03:14 23:07:37 57° 126° (SE) 23:12:05 436.795
UNISAT 6 19 Nov 23:09:39 23:13:50 49° 291° (WNW) 23:17:57 437.425
TIGRISAT 19 Nov 23:14:28 23:18:36 48° 291° (WNW) 23:22:42 435.000
EO-79 19 Nov 23:17:37 23:19:16 12° 86° (E) 23:20:55 145.935-145.965
O/OREOS (USA 219) 19 Nov 23:19:43 23:24:18 76° 59° (ENE) 23:28:51 437.305
NANOSAT C BR1 19 Nov 23:21:59 23:23:32 12° 86° (E) 23:25:05 145.865
POLYITAN 1 19 Nov 23:31:40 23:34:21 16° 89° (E) 23:37:02 437.675
nSIGHT-1 19 Nov 23:32:09 23:35:19 60° 162° (SSE) 23:38:30 .
DX 1 19 Nov 23:33:19 23:35:25 13° 53° (NE) 23:37:31 434.975-435.025
LO-87 19 Nov 23:37:22 23:40:26 25° 266° (W) 23:43:31 145.935 - 145.965
FO-29 19 Nov 23:46:13 23:51:52 23° 313° (NW) 23:57:30 435.910
RS-15 19 Nov 23:47:24 23:59:04 45° 354° (N) 00:10:18 29.354- 29.394
SPROUT 19 Nov 23:49:19 23:53:36 75° 72° (ENE) 23:57:53 437.525
ESTCUBE 1 19 Nov 23:50:06 23:54:10 33° 264° (W) 23:58:16 437.505/2401.250
QB50P2 19 Nov 23:54:09 23:57:51 29° 95° (E) 00:01:31 145.880/145.840
NO-84 20 Nov 00:06:35 00:08:17 12° 233° (SW) 00:09:59 435.350 FM
AIST 2D 20 Nov 00:08:47 00:12:18 75° 285° (WNW) 00:15:49 435.315
ISS 20 Nov 00:11:17 00:14:34 77° 166° (SSE) 00:17:50 437.550
VELOX 1 20 Nov 00:16:23 00:20:50 88° 255° (WSW) 00:25:20 145.980
UKube-1 20 Nov 00:17:13 00:20:25 20° 59° (ENE) 00:23:37 .
50 SAT 20 Nov 00:17:50 00:20:29 23° 65° (ENE) 00:23:09 437.505
PCSat 20 Nov 00:28:02 00:32:25 26° 110° (ESE) 00:36:50 145.827
PRISM 20 Nov 00:37:26 00:40:33 21° 300° (WNW) 00:43:39 437.425
SO-50 20 Nov 00:44:15 00:48:20 33° 328° (NNW) 00:52:30 436.795
DUCHIFAT 1 20 Nov 00:45:56 00:50:07 66° 102° (ESE) 00:54:15 145.980
EO-79 20 Nov 00:51:25 00:55:40 87° 281° (WNW) 00:59:51 145.935-145.965
NANOSAT C BR1 20 Nov 00:55:40 00:59:53 88° 286° (WNW) 01:04:04 145.865
O/OREOS (USA 219) 20 Nov 01:00:19 01:03:09 16° 260° (W) 01:05:57 437.305
POLYITAN 1 20 Nov 01:06:23 01:10:34 64° 288° (WNW) 01:14:42 437.675
DX 1 20 Nov 01:06:31 01:10:53 78° 73° (ENE) 01:15:18 434.975-435.025
nSIGHT-1 20 Nov 01:08:18 01:11:31 88° 349° (NNW) 01:14:44 .
MOZHAYETS 4 20 Nov 01:13:43 01:16:32 16° 56° (NE) 01:19:22
SPROUT 20 Nov 01:27:36 01:30:01 15° 272° (W) 01:32:25 437.525
QB50P2 20 Nov 01:29:50 01:33:42 35° 294° (WNW) 01:37:31 145.880/145.840
BUGSAT 1 20 Nov 01:44:14 01:48:19 70° 104° (ESE) 01:52:18 437.445
ISS 20 Nov 01:47:45 01:51:02 86° 195° (SSW) 01:54:19 437.550
50 SAT 20 Nov 01:49:41 01:52:30 27° 264° (W) 01:55:21 437.505
UKube-1 20 Nov 01:51:47 01:56:03 60° 258° (WSW) 02:00:22 .
VELOX 1 20 Nov 01:56:05 01:57:58 12° 274° (W) 01:59:52 145.980
Oscar 19 20 Nov 02:00:19 02:05:23 54° 101° (E) 02:10:27 437.125/150
RS-15 20 Nov 02:02:33 02:14:29 55° 27° (NNE) 02:25:48 29.354- 29.394
PCSat 20 Nov 02:09:59 02:15:24 69° 311° (NW) 02:20:50 145.827
Gurwin Techsat 1B 20 Nov 02:14:23 02:19:37 53° 100° (E) 02:24:48 435.225
BEESAT 20 Nov 02:14:25 02:18:55 43° 66° (ENE) 02:23:26 436.000
DUCHIFAT 1 20 Nov 02:22:31 02:25:21 18° 301° (WNW) 02:28:09 145.980
ITUPSAT 1 20 Nov 02:23:02 02:27:38 49° 68° (ENE) 02:32:16 437.325
SO-50 20 Nov 02:27:05 02:30:04 17° 352° (N) 02:33:07 436.795
EO-79 20 Nov 02:28:41 02:30:46 14° 305° (NW) 02:32:52 145.935-145.965
NANOSAT C BR1 20 Nov 02:32:52 02:34:58 14° 305° (NW) 02:37:03 145.865
nSIGHT-1 20 Nov 02:44:34 02:47:41 49° 202° (SSW) 02:50:47 .
POLYITAN 1 20 Nov 02:44:50 02:45:31 10° 308° (NW) 02:46:11 437.675
DX 1 20 Nov 02:45:12 02:47:37 14° 272° (W) 02:50:04 434.975-435.025
MOZHAYETS 4 20 Nov 02:48:32 02:53:07 85° 255° (WSW) 02:57:43
CUBESAT XI-V 20 Nov 02:56:55 03:01:02 34° 65° (ENE) 03:05:13 437.345
BEESAT 3 20 Nov 03:02:53 03:05:48 20° 115° (ESE) 03:08:44 437.485
AO-7 20 Nov 03:06:36 03:13:43 30° 92° (E) 03:20:47 .
M-CUBED/EXP-1 PRIME 20 Nov 03:06:54 03:11:05 38° 104° (ESE) 03:15:23 437.505
KKS-1 20 Nov 03:15:21 03:18:14 17° 56° (NE) 03:21:06 437.445
BUGSAT 1 20 Nov 03:20:40 03:23:11 16° 302° (WNW) 03:25:42 437.445
ISS 20 Nov 03:24:19 03:27:20 35° 207° (SSW) 03:30:21 437.550
Oscar 19 20 Nov 03:40:06 03:44:28 28° 300° (WNW) 03:48:49 437.125/150
STARS 20 Nov 03:43:57 03:46:19 14° 54° (NE) 03:48:40 437.465
ITAMSAT 1 20 Nov 03:49:57 03:54:47 36° 96° (E) 03:59:33 435.822/435.867
BEESAT 20 Nov 03:52:38 03:56:49 30° 265° (W) 04:01:02 436.000
Gurwin Techsat 1B 20 Nov 03:54:45 03:59:20 30° 300° (WNW) 04:03:55 435.225
PCSat 20 Nov 03:55:26 03:59:45 23° 334° (NNW) 04:04:05 145.827
ITUPSAT 1 20 Nov 04:01:42 04:05:42 26° 267° (W) 04:09:43 437.325
SO-50 20 Nov 04:08:47 04:12:09 20° 16° (NNE) 04:15:32 436.795
BEESAT 2 20 Nov 04:10:29 04:13:56 27° 119° (ESE) 04:17:24 435.950
RS-15 20 Nov 04:15:49 04:27:44 73° 236° (SW) 04:38:59 29.354- 29.394
nSIGHT-1 20 Nov 04:21:43 04:23:21 13° 220° (SW) 04:25:00 .
AO-85 20 Nov 04:22:19 04:24:40 15° 112° (ESE) 04:27:05 145.980
MOZHAYETS 4 20 Nov 04:29:07 04:30:59 12° 275° (W) 04:32:53
CUBESAT XI-V 20 Nov 04:34:10 04:38:23 35° 264° (W) 04:42:40 437.345
BEESAT 3 20 Nov 04:38:58 04:42:57 65° 314° (NW) 04:46:58 437.485
M-CUBED/EXP-1 PRIME 20 Nov 04:41:23 04:45:24 35° 300° (WNW) 04:49:33 437.505
KKS-1 20 Nov 04:49:44 04:54:13 81° 254° (WSW) 04:58:45 437.445
AO-7 20 Nov 04:58:58 05:07:19 80° 294° (WNW) 05:15:41 .
DOVE 4 20 Nov 04:59:18 05:04:06 34° 94° (E) 05:08:41 437.250
STRAND 1 20 Nov 05:00:36 05:03:02 13° 49° (NE) 05:05:27 437.568
YUBILEINY 20 Nov 05:14:36 05:22:26 39° 84° (E) 05:30:20 435.215
CUTE-I 20 Nov 05:16:17 05:16:37 10° 82° (E) 05:16:58 437.470
STARS 20 Nov 05:17:32 05:21:59 84° 74° (ENE) 05:26:27 437.465
ITAMSAT 1 20 Nov 05:29:26 05:34:18 41° 296° (WNW) 05:39:08 435.822/435.867
PCSat 20 Nov 05:41:51 05:45:08 16° 0° (N) 05:48:24 145.827
KAITUO 1B 20 Nov 05:44:02 05:45:41 12° 88° (E) 05:47:20 145.475/437.950
BEESAT 2 20 Nov 05:47:32 05:51:28 49° 319° (NW) 05:55:27 435.950
SO-50 20 Nov 05:49:07 05:53:36 49° 39° (NE) 05:58:09 436.795
XW-2D 20 Nov 05:54:44 05:57:45 22° 93° (E) 06:00:45 145.860 - 145.880
AO-85 20 Nov 06:00:30 06:04:27 78° 315° (NW) 06:08:39 145.980
XW-2B 20 Nov 06:09:17 06:12:39 29° 96° (E) 06:16:00 145.730 - 145.750
CUTE 1.7 + AOD 2 20 Nov 06:14:26 06:15:16 10° 85° (E) 06:16:07 437.475
BEESAT 3 20 Nov 06:18:17 06:21:12 19° 337° (NNW) 06:24:07 437.485
HO-68 20 Nov 06:18:33 06:23:36 20° 86° (E) 06:28:36 435.675
NUDT-PHONESAT 20 Nov 06:29:27 06:32:52 33° 97° (E) 06:36:16 437.300
RS-15 20 Nov 06:29:41 06:37:57 23° 262° (W) 06:45:59 29.354- 29.394
KKS-1 20 Nov 06:30:00 06:31:31 11° 274° (W) 06:33:03 437.445
FO-29 20 Nov 06:33:42 06:39:29 29° 52° (NE) 06:45:44 435.910
XW-2C 20 Nov 06:34:34 06:38:19 54° 101° (E) 06:42:03 145.795 - 145.815
LilacSat-2 20 Nov 06:35:01 06:38:50 59° 101° (E) 06:42:37 437.200
STRAND 1 20 Nov 06:36:11 06:41:16 63° 69° (ENE) 06:46:22 437.568
DOVE 4 20 Nov 06:36:54 06:41:52 43° 294° (WNW) 06:46:39 437.250
SEEDS 20 Nov 06:46:02 06:48:18 14° 87° (E) 06:50:34 437.485
XW-2F 20 Nov 06:46:23 06:50:10 69° 102° (ESE) 06:53:57 145.980 - 146.000
AO-7 20 Nov 06:52:26 06:59:02 27° 317° (NW) 07:05:38 .
CUTE-I 20 Nov 06:52:28 06:57:49 60° 101° (ESE) 07:03:07 437.470
STARS 20 Nov 06:56:38 06:58:55 14° 272° (W) 07:01:13 437.465
CUBEBUG 2 20 Nov 06:56:50 06:59:30 16° 88° (E) 07:02:08 437.445
YUBILEINY 20 Nov 07:10:13 07:18:52 62° 287° (WNW) 07:27:39 435.215
KAITUO 1B 20 Nov 07:16:22 07:20:07 71° 286° (WNW) 07:23:53 145.475/437.950
PCSat 20 Nov 07:26:07 07:30:30 24° 26° (NNE) 07:34:51 145.827
BEESAT 2 20 Nov 07:27:23 07:30:05 17° 341° (NNW) 07:32:49 435.950
XW-2D 20 Nov 07:28:30 07:32:03 39° 291° (WNW) 07:35:37 145.860 - 145.880
SO-50 20 Nov 07:29:47 07:33:59 35° 239° (WSW) 07:38:13 436.795
AO-85 20 Nov 07:42:20 07:45:31 21° 337° (NNW) 07:48:52 145.980
XW-2B 20 Nov 07:43:28 07:46:47 29° 294° (WNW) 07:50:07 145.730 - 145.750
CUTE 1.7 + AOD 2 20 Nov 07:47:32 07:51:49 80° 103° (ESE) 07:56:06 437.475
ZACube-1 20 Nov 07:48:48 07:51:37 18° 90° (E) 07:54:26 437.345
UWE-3 20 Nov 07:55:17 07:59:07 34° 96° (E) 08:02:54 435.000/436.395/437.385
BEESAT 3 20 Nov 07:58:25 08:00:12 12° 1° (N) 08:01:59 437.485
NUDT-PHONESAT 20 Nov 08:03:33 08:06:35 25° 295° (WNW) 08:09:39 437.300
HO-68 20 Nov 08:05:10 08:12:26 83° 108° (ESE) 08:19:38 435.675
XW-2A 20 Nov 08:09:11 08:12:23 42° 99° (E) 08:15:36 145.665 - 145.685
XW-2C 20 Nov 08:09:34 08:12:09 18° 299° (WNW) 08:14:42 145.795 - 145.815
LilacSat-2 20 Nov 08:10:14 08:12:43 17° 300° (WNW) 08:15:11 437.200
STRAND 1 20 Nov 08:16:49 08:20:52 23° 269° (W) 08:24:56 437.568
FO-29 20 Nov 08:16:55 08:23:43 83° 255° (WSW) 08:31:21 435.910
SEEDS 20 Nov 08:20:16 08:24:31 77° 285° (WNW) 08:28:46 437.485
XW-2F 20 Nov 08:21:41 08:23:48 15° 301° (WNW) 08:25:57 145.980 - 146.000
PRISM 20 Nov 08:23:06 08:24:54 13° 54° (NE) 08:26:42 437.425
AAUSAT CUBESAT 2 20 Nov 08:30:24 08:34:35 66° 102° (ESE) 08:38:45 437.432
CUBEBUG 2 20 Nov 08:32:24 08:36:35 62° 288° (WNW) 08:40:40 437.445
CUTE-I 20 Nov 08:33:04 08:37:32 27° 302° (WNW) 08:41:59 437.470
UNISAT 6 20 Nov 08:36:52 08:41:03 37° 66° (ENE) 08:45:10 437.425
AO-73 20 Nov 08:39:44 08:43:45 47° 99° (E) 08:47:45 145.935
TIGRISAT 20 Nov 08:41:30 08:45:42 38° 67° (ENE) 08:49:49 435.000
AO-7 20 Nov 08:46:16 08:49:03 12° 343° (NNW) 08:51:50 .
Oscar 11 20 Nov 08:57:18 09:01:32 50° 99° (E) 09:05:44 .
BEESAT 2 20 Nov 09:07:22 09:09:21 13° 5° (N) 09:11:19 435.950
PCSat 20 Nov 09:09:22 09:14:50 71° 50° (NE) 09:20:14 145.827
DELFI C3 20 Nov 09:11:54 09:14:37 17° 90° (E) 09:17:19 145.870
YUBILEINY 20 Nov 09:12:08 09:17:56 19° 314° (NW) 09:23:47 435.215
AIST 2D 20 Nov 09:18:12 09:18:28 10° 57° (ENE) 09:18:42 435.315
ZACube-1 20 Nov 09:24:12 09:28:17 57° 288° (WNW) 09:32:21 437.345
CUTE 1.7 + AOD 2 20 Nov 09:24:33 09:27:07 16° 303° (WNW) 09:29:40 437.475
AO-85 20 Nov 09:25:00 09:27:27 15° 2° (N) 09:29:59 145.980
UWE-3 20 Nov 09:31:55 09:35:32 29° 295° (WNW) 09:39:06 435.000/436.395/437.385
BEESAT 3 20 Nov 09:36:12 09:39:10 20° 24° (NNE) 09:42:07 437.485
XW-2A 20 Nov 09:42:34 09:44:50 17° 297° (WNW) 09:47:05 145.665 - 145.685
HO-68 20 Nov 09:53:34 09:59:29 29° 309° (NW) 10:05:23 435.675
PRISM 20 Nov 09:55:21 09:59:29 81° 72° (ENE) 10:03:40 437.425
SEEDS 20 Nov 09:57:46 09:59:29 12° 305° (NW) 10:01:12 437.485
FO-29 20 Nov 10:05:08 10:10:00 20° 278° (W) 10:15:16 435.910
AAUSAT CUBESAT 2 20 Nov 10:06:46 10:09:36 18° 301° (WNW) 10:12:26 437.432
DUCHIFAT 1 20 Nov 10:09:10 10:11:30 15° 56° (ENE) 10:13:50 145.980
UNISAT 6 20 Nov 10:13:45 10:17:48 31° 265° (W) 10:21:49 437.425
EO-79 20 Nov 10:14:21 10:17:25 20° 60° (ENE) 10:20:28 145.935-145.965
AO-73 20 Nov 10:16:31 10:19:44 22° 298° (WNW) 10:22:58 145.935
NANOSAT C BR1 20 Nov 10:18:20 10:21:21 19° 59° (ENE) 10:24:21 145.865
TIGRISAT 20 Nov 10:18:25 10:22:27 30° 265° (W) 10:26:26 435.000
POLYITAN 1 20 Nov 10:28:50 10:32:20 26° 63° (ENE) 10:35:50 437.675
Max Valier Satellite 20 Nov 10:29:41 10:33:23 76° 103° (ESE) 10:37:03 145.860
EO-88 20 Nov 10:30:24 10:34:01 55° 100° (E) 10:37:36 145.990 - 145.960
Oscar 11 20 Nov 10:33:59 10:37:24 23° 298° (WNW) 10:40:49 .
AO-7 20 Nov 10:36:20 10:38:13 11° 11° (NNE) 10:40:06 .
BEESAT 2 20 Nov 10:45:05 10:48:25 24° 28° (NNE) 10:51:44 435.950
DELFI C3 20 Nov 10:45:45 10:49:41 55° 289° (WNW) 10:53:36 145.870
AIST 2D 20 Nov 10:47:33 10:51:01 88° 79° (E) 10:54:31 435.315
QB50P2 20 Nov 10:51:24 10:55:26 43° 68° (ENE) 10:59:28 145.880/145.840
PCSat 20 Nov 10:53:26 10:57:46 25° 250° (WSW) 11:02:05 145.827
LO-87 20 Nov 10:58:42 11:01:10 17° 91° (E) 11:03:36 145.935 - 145.965
BUGSAT 1 20 Nov 11:05:30 11:07:52 15° 57° (ENE) 11:10:15 437.445
AO-85 20 Nov 11:05:44 11:09:20 23° 26° (NNE) 11:13:07 145.980
BEESAT 3 20 Nov 11:13:23 11:17:22 72° 46° (NE) 11:21:17 437.485
PRISM 20 Nov 11:33:22 11:35:19 13° 272° (W) 11:37:16 437.425
ESTCUBE 1 20 Nov 11:36:26 11:40:37 35° 96° (E) 11:44:45 437.505/2401.250
DUCHIFAT 1 20 Nov 11:42:21 11:46:35 85° 254° (WSW) 11:50:49 145.980
Oscar 19 20 Nov 11:44:45 11:48:50 25° 58° (ENE) 11:52:56 437.125/150
EO-79 20 Nov 11:48:36 11:52:47 60° 258° (WSW) 11:57:01 145.935-145.965
NANOSAT C BR1 20 Nov 11:52:28 11:56:40 61° 259° (WSW) 12:00:52 145.865
Gurwin Techsat 1B 20 Nov 12:02:23 12:06:45 27° 58° (ENE) 12:11:07 435.225
VELOX 1 20 Nov 12:02:37 12:04:29 12° 86° (E) 12:06:21 145.980
POLYITAN 1 20 Nov 12:03:54 12:07:56 42° 262° (W) 12:12:00 437.675
EO-88 20 Nov 12:04:57 12:07:18 16° 299° (WNW) 12:09:38 145.990 - 145.960
Max Valier Satellite 20 Nov 12:04:59 12:06:41 13° 302° (WNW) 12:08:23 145.860
AO-7 20 Nov 12:22:00 12:27:59 23° 38° (NE) 12:33:59 .
BEESAT 2 20 Nov 12:22:33 12:26:37 83° 230° (SW) 12:30:37 435.950
M-CUBED/EXP-1 PRIME 20 Nov 12:25:10 12:27:25 15° 49° (NE) 12:29:47 437.505
QB50P2 20 Nov 12:27:56 12:31:24 24° 267° (W) 12:34:53 145.880/145.840
LO-87 20 Nov 12:31:23 12:34:47 43° 290° (WNW) 12:38:09 145.935 - 145.965
BUGSAT 1 20 Nov 12:38:29 12:42:41 83° 253° (WSW) 12:46:53 437.445
AO-85 20 Nov 12:45:49 12:50:22 78° 47° (NE) 12:55:17 145.980
BEESAT 3 20 Nov 12:51:49 12:54:27 17° 246° (WSW) 12:57:02 437.485
SPROUT 20 Nov 13:05:06 13:09:22 68° 103° (ESE) 13:13:35 437.525
ESTCUBE 1 20 Nov 13:13:19 13:17:24 34° 295° (WNW) 13:21:29 437.505/2401.250
DUCHIFAT 1 20 Nov 13:21:41 13:22:55 11° 274° (W) 13:24:08 145.980
Oscar 19 20 Nov 13:22:43 13:27:47 63° 258° (WSW) 13:32:54 437.125/150
UKube-1 20 Nov 13:34:14 13:36:52 16° 89° (E) 13:39:29 .
ITAMSAT 1 20 Nov 13:35:55 13:39:34 19° 54° (NE) 13:43:12 435.822/435.867
VELOX 1 20 Nov 13:37:07 13:41:37 87° 103° (ESE) 13:46:04 145.980
O/OREOS (USA 219) 20 Nov 13:37:41 13:41:41 30° 106° (ESE) 13:45:42 437.305
Gurwin Techsat 1B 20 Nov 13:41:05 13:46:21 62° 258° (WSW) 13:51:40 435.225
M-CUBED/EXP-1 PRIME 20 Nov 13:57:37 14:01:15 77° 251° (WSW) 14:05:12 437.505
BEESAT 2 20 Nov 14:01:57 14:03:40 12° 249° (WSW) 14:05:22 435.950
AO-7 20 Nov 14:11:12 14:19:21 65° 62° (ENE) 14:27:33 .
BUGSAT 1 20 Nov 14:17:50 14:18:42 11° 274° (W) 14:19:35 437.445
DX 1 20 Nov 14:25:12 14:29:36 68° 103° (ESE) 14:33:58 434.975-435.025
AO-85 20 Nov 14:26:55 14:30:25 21° 244° (WSW) 14:34:05 145.980
50 SAT 20 Nov 14:33:06 14:36:21 73° 287° (WNW) 14:39:34 437.505
DOVE 4 20 Nov 14:35:19 14:37:31 13° 49° (NE) 14:39:43 437.250
MOZHAYETS 4 20 Nov 14:39:03 14:41:49 16° 88° (E) 14:44:34
SPROUT 20 Nov 14:41:57 14:44:48 18° 302° (WNW) 14:47:40 437.525
Oscar 19 20 Nov 15:08:03 15:08:10 10° 278° (W) 15:08:17 437.125/150
UKube-1 20 Nov 15:09:02 15:13:23 71° 287° (WNW) 15:17:40 .
ITAMSAT 1 20 Nov 15:13:08 15:18:23 88° 253° (WSW) 15:23:41 435.822/435.867
VELOX 1 20 Nov 15:14:47 15:17:27 16° 305° (NW) 15:20:05 145.980
O/OREOS (USA 219) 20 Nov 15:16:34 15:20:57 43° 306° (NW) 15:25:24 437.305
YUBILEINY 20 Nov 15:16:52 15:24:13 28° 56° (NE) 15:31:32 435.215
NO-84 20 Nov 15:24:19 15:26:32 15° 129° (SE) 15:28:51 435.350 FM
Gurwin Techsat 1B 20 Nov 15:26:45 15:27:25 10° 278° (W) 15:28:05 435.225
BEESAT 20 Nov 15:46:17 15:50:53 46° 99° (E) 15:55:27 436.000
ITUPSAT 1 20 Nov 15:55:26 16:00:07 54° 100° (E) 16:04:47 437.325
DX 1 20 Nov 16:02:16 16:05:20 19° 302° (WNW) 16:08:23 434.975-435.025
AO-7 20 Nov 16:05:02 16:12:36 38° 264° (W) 16:20:14 .
DOVE 4 20 Nov 16:09:06 16:14:06 57° 69° (ENE) 16:19:17 437.250
MOZHAYETS 4 20 Nov 16:14:57 16:19:32 77° 286° (WNW) 16:24:06
CUBESAT XI-V 20 Nov 16:24:31 16:28:55 38° 97° (E) 16:33:18 437.345
KAITUO 1B 20 Nov 16:29:08 16:31:05 14° 59° (ENE) 16:33:03 145.475/437.950
KKS-1 20 Nov 16:36:39 16:38:52 13° 87° (E) 16:41:04 437.445
CUTE-I 20 Nov 16:40:49 16:45:27 31° 60° (ENE) 16:50:06 437.470
XW-2D 20 Nov 16:41:00 16:44:01 24° 64° (ENE) 16:47:03 145.860 - 145.880
UKube-1 20 Nov 16:46:55 16:48:38 12° 308° (NW) 16:50:20 .
HO-68 20 Nov 16:53:05 16:59:04 30° 51° (NE) 17:05:03 435.675
XW-2B 20 Nov 16:55:26 16:58:44 31° 67° (ENE) 17:02:05 145.730 - 145.750
ITAMSAT 1 20 Nov 16:55:35 16:58:37 15° 273° (W) 17:01:41 435.822/435.867
NO-84 20 Nov 16:59:22 17:03:11 64° 150° (SSE) 17:07:17 435.350 FM
O/OREOS (USA 219) 20 Nov 16:59:57 17:01:37 12° 329° (NNW) 17:03:19 437.305
STARS 20 Nov 17:04:15 17:04:50 10° 85° (E) 17:05:25 437.465
CUTE 1.7 + AOD 2 20 Nov 17:11:17 17:13:53 16° 58° (ENE) 17:16:30 437.475
NUDT-PHONESAT 20 Nov 17:13:19 17:16:37 33° 68° (ENE) 17:19:57 437.300
YUBILEINY 20 Nov 17:13:25 17:22:21 89° 256° (WSW) 17:31:12 435.215
XW-2C 20 Nov 17:20:33 17:24:13 57° 72° (ENE) 17:27:55 145.795 - 145.815
LilacSat-2 20 Nov 17:21:40 17:25:22 63° 73° (ENE) 17:29:08 437.200
BEESAT 20 Nov 17:24:24 17:28:30 29° 299° (WNW) 17:32:33 436.000
XW-2F 20 Nov 17:31:51 17:35:32 71° 74° (ENE) 17:39:17 145.980 - 146.000
ITUPSAT 1 20 Nov 17:33:47 17:37:40 25° 300° (WNW) 17:41:33 437.325
SEEDS 20 Nov 17:42:30 17:45:32 20° 60° (ENE) 17:48:36 437.485
DOVE 4 20 Nov 17:47:55 17:52:07 26° 270° (W) 17:56:28 437.250
AAUSAT CUBESAT 2 20 Nov 17:52:37 17:54:30 13° 55° (NE) 17:56:22 437.432
MOZHAYETS 4 20 Nov 17:53:43 17:55:57 14° 307° (NW) 17:58:10
CUBEBUG 2 20 Nov 17:59:17 18:03:10 28° 64° (ENE) 18:06:58 437.445
KAITUO 1B 20 Nov 18:00:55 18:04:35 70° 258° (WSW) 18:08:18 145.475/437.950
CUBESAT XI-V 20 Nov 18:02:03 18:06:13 32° 296° (WNW) 18:10:23 437.345
AO-73 20 Nov 18:07:19 18:08:40 11° 54° (NE) 18:10:01 145.935
KKS-1 20 Nov 18:11:33 18:16:04 87° 283° (WNW) 18:20:32 437.445
XW-2D 20 Nov 18:14:34 18:18:02 36° 263° (W) 18:21:32 145.860 - 145.880
CUTE-I 20 Nov 18:20:02 18:25:16 53° 260° (W) 18:30:34 437.470
Oscar 11 20 Nov 18:24:07 18:25:47 12° 54° (NE) 18:27:27 .
XW-2B 20 Nov 18:29:44 18:32:56 27° 266° (W) 18:36:10 145.730 - 145.750
NO-84 20 Nov 18:36:42 18:40:41 57° 351° (N) 18:44:51 435.350 FM
STARS 20 Nov 18:37:32 18:41:58 76° 104° (ESE) 18:46:21 437.465
HO-68 20 Nov 18:38:57 18:46:10 81° 254° (WSW) 18:53:26 435.675
STRAND 1 20 Nov 18:42:36 18:45:16 14° 86° (E) 18:47:55 437.568
RS-15 20 Nov 18:44:37 18:55:54 45° 111° (ESE) 19:07:04 29.354- 29.394
CUTE 1.7 + AOD 2 20 Nov 18:45:00 18:49:11 75° 256° (WSW) 18:53:26 437.475
XW-2A 20 Nov 18:45:06 18:48:08 33° 69° (ENE) 18:51:10 145.665 - 145.685
NUDT-PHONESAT 20 Nov 18:47:35 18:50:33 23° 267° (W) 18:53:32 437.300
ZACube-1 20 Nov 18:49:17 18:52:55 28° 64° (ENE) 18:56:32 437.345
XW-2C 20 Nov 18:56:34 18:58:45 15° 271° (W) 19:00:59 145.795 - 145.815
UWE-3 20 Nov 18:56:51 19:01:11 55° 71° (ENE) 19:05:24 435.000/436.395/437.385
LilacSat-2 20 Nov 18:58:05 19:00:04 14° 272° (W) 19:02:04 437.200
XW-2F 20 Nov 19:08:35 19:10:08 12° 273° (W) 19:11:40 145.980 - 146.000
YUBILEINY 20 Nov 19:11:20 19:17:58 25° 284° (WNW) 19:24:36 435.215
SEEDS 20 Nov 19:16:46 19:20:51 57° 259° (W) 19:25:01 437.485
FO-29 20 Nov 19:21:59 19:26:35 16° 79° (ENE) 19:31:03 435.910
AAUSAT CUBESAT 2 20 Nov 19:25:08 19:29:16 84° 78° (ENE) 19:33:28 437.432
CUBEBUG 2 20 Nov 19:35:20 19:39:40 41° 262° (W) 19:43:54 437.445
AO-73 20 Nov 19:39:54 19:44:10 72° 74° (ENE) 19:48:23 145.935
KKS-1 20 Nov 19:49:28 19:51:58 15° 306° (NW) 19:54:27 437.445
Oscar 11 20 Nov 19:56:54 20:01:11 74° 73° (ENE) 20:05:30 .
DELFI C3 20 Nov 20:02:01 20:05:04 21° 62° (ENE) 20:08:07 145.870
NO-84 20 Nov 20:14:19 20:18:26 60° 11° (N) 20:22:40 435.350 FM
STARS 20 Nov 20:14:54 20:17:47 17° 303° (WNW) 20:20:40 437.465
XW-2A 20 Nov 20:18:28 20:20:56 19° 267° (W) 20:23:25 145.665 - 145.685
STRAND 1 20 Nov 20:20:06 20:25:16 84° 106° (ESE) 20:30:23 437.568
ZACube-1 20 Nov 20:25:04 20:29:06 38° 262° (W) 20:33:05 437.345
HO-68 20 Nov 20:30:09 20:35:02 19° 274° (W) 20:39:58 435.675
UWE-3 20 Nov 20:34:41 20:37:57 20° 269° (W) 20:41:11 435.000/436.395/437.385
RS-15 20 Nov 20:55:23 21:07:48 77° 317° (NW) 21:20:00 29.354- 29.394
nSIGHT-1 20 Nov 21:03:15 21:03:57 11° 138° (SE) 21:04:40 .
AAUSAT CUBESAT 2 20 Nov 21:03:38 21:05:20 12° 274° (W) 21:07:03 437.432
FO-29 20 Nov 21:05:16 21:13:09 65° 100° (E) 21:20:40 435.910
ESTCUBE 1 20 Nov 21:08:12 21:09:18 11° 51° (NE) 21:10:24 437.505/2401.250
EO-88 20 Nov 21:12:41 21:16:12 52° 71° (ENE) 21:19:45 145.990 - 145.960
Max Valier Satellite 20 Nov 21:13:07 21:16:45 74° 74° (ENE) 21:20:25 145.860
AO-73 20 Nov 21:18:26 21:20:53 15° 272° (W) 21:23:20 145.935
Oscar 11 20 Nov 21:35:23 21:37:50 15° 272° (W) 21:40:18 .
DELFI C3 20 Nov 21:35:42 21:39:32 47° 261° (W) 21:43:25 145.870
LO-87 20 Nov 21:39:44 21:42:14 18° 62° (ENE) 21:44:44 145.935 - 145.965
ISS 20 Nov 21:43:55 21:46:15 18° 143° (SE) 21:48:34 437.550
SO-50 20 Nov 21:49:34 21:52:51 20° 115° (ESE) 21:56:10 436.795
NO-84 20 Nov 21:51:44 21:55:54 60° 212° (SSW) 22:00:06 435.350 FM
UNISAT 6 20 Nov 21:59:19 22:03:19 36° 96° (E) 22:07:16 437.425
STRAND 1 20 Nov 22:00:15 22:03:51 20° 305° (NW) 22:07:26 437.568
O/OREOS (USA 219) 20 Nov 22:02:43 22:06:36 26° 46° (NE) 22:10:26 437.305
TIGRISAT 20 Nov 22:03:48 22:07:48 37° 97° (E) 22:11:44 435.000
SPROUT 20 Nov 22:29:29 22:32:02 16° 57° (ENE) 22:34:36 437.525
